C/2017 D3 ( ATLAS )

Japanese version
Home page
Updated on October 22, 2018

---------------------------------------------------------------------

* Profile

Discovery Date February 23, 2017
Magnitude 18.0 mag
Discoverer Asteroid Terrestrial-impact Last Alert System (ATLAS) Team

* Pictures

* Orbital Elements

Epoch 2017 May 7.0 TT = JDT 2457880.5
T 2017 Apr. 26.86961 TT                                 MPCW
q   4.9713517            (2000.0)            P               Q
z  -0.0004262      Peri.  340.77250     -0.91588997     -0.39040322
 +/-0.0000010      Node   186.60252     -0.16806197     +0.16152801
e   1.0021188      Incl.  125.64428     -0.36455554     +0.90636308
From 456 observations 2017 Feb. 10-2018 July 13, mean residual 0".5.

* Magnitudes Graph

        m1 = 3.0 + 5 log d + 15.0 log r(t - 200)

---------------------------------------------------------------------

The orbital elements are published on M.P.E.C. 2018-S50.
The magnitudes graphs are made with Comet for Windows.

---------------------------------------------------------------------

Copyright(C) Seiichi Yoshida (comet@aerith.net). All rights reserved.